GW6417 Weather Reports


time (UTC)temp
C
wind
direction
speed
KPH
gust
KPH
rain 1hr
cm
rain 24hr
cm
rain mn
cm
humidity
%
barometer
mb
20260906065518 23 0.0 0.0 0.00 0.00 0.00 35 1013.8
20260906065029 23 0.0 0.0 0.00 0.00 0.00 32 1015.8
20260906064520 23 0.0 0.0 0.00 0.00 0.00 37 1013.9
20260906064011 23 0.0 0.0 0.00 0.00 0.00 34 1014.9
20260906063505 23 0.0 0.0 0.00 0.00 0.00 37 1014.4
20260906063013 23 0.0 0.0 0.00 0.00 0.00 39 1012.3
20260906062513 22 0.0 0.0 0.00 0.00 0.00 37 1013.7
20260906062013 22 0.0 0.0 0.00 0.00 0.00 34 1012.2
20260906061512 21 0.0 0.0 0.00 0.00 0.00 37 1015.4
20260906061026 20 0.0 0.0 0.00 0.00 0.00 35 1015.7
20260906060519 20 0.0 0.0 0.00 0.00 0.00 34 1015.4
20260906060012 20 0.0 0.0 0.00 0.00 0.00 36 1015.6
20260906055510 20 0.0 0.0 0.00 0.00 0.00 37 1015.8
20260906055026 20 0.0 0.0 0.00 0.00 0.00 36 1015.8
20260906054511 20 0.0 0.0 0.00 0.00 0.00 37 1015.7
20260906054011 20 0.0 0.0 0.00 0.00 0.00 36 1015.4
20260906053512 20 0.0 0.0 0.00 0.00 0.00 38 1015.4
20260906053013 20 0.0 0.0 0.00 0.00 0.00 38 1015.7
20260906052525 20 0.0 0.0 0.00 0.00 0.00 38 1015.6
20260906052033 20 0.0 0.0 0.00 0.00 0.00 41 1015.4
20260906051511 20 0.0 0.0 0.00 0.00 0.00 42 1015.4
20260906051006 20 0.0 0.0 0.00 0.00 0.00 44 1015.3
20260906050510 19 0.0 0.0 0.00 0.00 0.00 45 1016.1
20260906050030 19 0.0 0.0 0.00 0.00 0.00 46 1015.9
20260906045513 19 0.0 0.0 0.00 0.00 0.00 47 1015.9
20260906045040 19 0.0 0.0 0.00 0.00 0.00 51 1016.0
20260906044512 19 0.0 0.0 0.00 0.00 0.00 52 1016.0
20260906044012 19 0.0 0.0 0.00 0.00 0.00 53 1016.0
20260906043510 19 0.0 0.0 0.00 0.00 0.00 52 1016.1
20260906043010 19 0.0 0.0 0.00 0.00 0.00 54 1016.1
20260906042510 19 0.0 0.0 0.00 0.00 0.00 55 1016.0
20260906042024 19 0.0 0.0 0.00 0.00 0.00 55 1016.0
20260906041527 19 0.0 0.0 0.00 0.00 0.00 55 1016.1
20260906041013 19 0.0 0.0 0.00 0.00 0.00 56 1016.1
20260906040513 19 0.0 0.0 0.00 0.00 0.00 56 1016.1
20260906040014 19 0.0 0.0 0.00 0.00 0.00 57 1016.1
20260906035511 19 0.0 0.0 0.00 0.00 0.00 59 1016.0
20260906035142 19 0.0 0.0 0.00 0.00 0.00 60 1016.0
20260906034514 19 0.0 0.0 0.00 0.00 0.00 60 1016.1
20260906034011 19 0.0 0.0 0.00 0.00 0.00 60 1016.0
20260906033511 19 0.0 0.0 0.00 0.00 0.00 60 1015.9
20260906033021 19 0.0 0.0 0.00 0.00 0.00 60 1015.8
20260906032510 19 0.0 0.0 0.00 0.00 0.00 59 1015.9
20260906032031 19 0.0 0.0 0.00 0.00 0.00 59 1015.8
20260906031511 19 0.0 0.0 0.00 0.00 0.00 60 1015.9
20260906031005 19 0.0 0.0 0.00 0.00 0.00 59 1015.9
20260906030512 19 0.0 0.0 0.00 0.00 0.00 59 1015.9
20260906030014 19 0.0 0.0 0.00 0.00 0.00 59 1015.9
20260906025519 19 0.0 0.0 0.00 0.00 0.00 59 1015.9
20260906025013 19 0.0 0.0 0.00 0.00 0.00 56 1016.0
20260906024515 19 0.0 0.0 0.00 0.00 0.00 53 1016.0
20260906024011 19 0.0 0.0 0.00 0.00 0.00 54 1016.0
20260906023518 19 0.0 0.0 0.00 0.00 0.00 53 1016.0
20260906022530 19 0.0 0.0 0.00 0.00 0.00 60 1016.0
20260906022012 19 0.0 0.0 0.00 0.00 0.00 61 1016.0
20260906021511 19 0.0 0.0 0.00 0.00 0.00 63 1016.1
20260906020530 19 0.0 0.0 0.00 0.00 0.00 64 1016.0
20260906020010 19 0.0 0.0 0.00 0.00 0.00 63 1016.1
20260906015514 19 0.0 0.0 0.00 0.00 0.00 64 1016.2
20260906015014 19 0.0 0.0 0.00 0.00 0.00 63 1016.1
20260906014505 19 0.0 0.0 0.00 0.00 0.00 61 1016.2
20260906014013 20 0.0 0.0 0.00 0.00 0.00 59 1016.1
20260906013512 20 0.0 0.0 0.00 0.00 0.00 58 1015.8
20260906013010 20 0.0 0.0 0.00 0.00 0.00 58 1015.9
20260906012510 20 0.0 0.0 0.00 0.00 0.00 56 1015.7
20260906012006 19 0.0 0.0 0.00 0.00 0.00 55 1016.0
20260906011521 19 0.0 0.0 0.00 0.00 0.00 52 1016.0
20260906011010 19 0.0 0.0 0.00 0.00 0.00 53 1015.5
20260906005633 19 0.0 0.0 0.00 0.00 0.00 42 1016.2
20260906005134 19 0.0 0.0 0.00 0.00 0.00 39 1016.0
20260906004633 19 0.0 0.0 0.00 0.00 0.00 36 1016.0
20260906004132 19 0.0 0.0 0.00 0.00 0.00 32 1016.4
20260906003637 19 0.0 0.0 0.00 0.00 0.00 32 1016.5
20260906003132 20 0.0 0.0 0.00 0.00 0.00 32 1016.0
20260906002632 20 0.0 0.0 0.00 0.00 0.00 37 1015.6
20260906002132 19 0.0 0.0 0.00 0.00 0.00 32 1015.7
20260906001632 19 0.0 0.0 0.00 0.00 0.00 30 1016.2
20260906001132 19 0.0 0.0 0.00 0.00 0.00 30 1016.1
20260906000737 19 0.0 0.0 0.00 0.00 0.00 30 1016.1
20260906000132 19 0.0 0.0 0.00 0.00 0.00 30 1016.0
20260905235632 19 0.0 0.0 0.00 0.00 0.00 30 1016.1
20260905235147 19 0.0 0.0 0.00 0.00 0.00 29 1016.1
20260905234634 19 0.0 0.0 0.00 0.00 0.00 28 1016.2
20260905234132 20 0.0 0.0 0.00 0.00 0.00 27 1016.3
20260905233632 20 0.0 0.0 0.00 0.00 0.00 27 1016.4
20260905233148 20 0.0 0.0 0.00 0.00 0.00 27 1015.4
20260905232633 20 0.0 0.0 0.00 0.00 0.00 28 1016.2
20260905232136 20 0.0 0.0 0.00 0.00 0.00 28 1016.1
20260905231632 20 0.0 0.0 0.00 0.00 0.00 29 1016.2
20260905231134 20 0.0 0.0 0.00 0.00 0.00 31 1016.2
20260905230648 20 0.0 0.0 0.00 0.00 0.00 31 1016.2
20260905225632 20 0.0 0.0 0.00 0.00 0.00 32 1016.1
20260905225133 20 0.0 0.0 0.00 0.00 0.00 32 1016.3
20260905224706 20 0.0 0.0 0.00 0.00 0.00 33 1016.3
20260905224133 20 0.0 0.0 0.00 0.00 0.00 33 1016.2
20260905223633 20 0.0 0.0 0.00 0.00 0.00 33 1016.1
20260905223132 20 0.0 0.0 0.00 0.00 0.00 33 1016.2
20260905222643 20 0.0 0.0 0.00 0.00 0.00 34 1016.3
20260905222132 20 0.0 0.0 0.00 0.00 0.00 34 1016.1
20260905221632 20 0.0 0.0 0.00 0.00 0.00 34 1016.2
20260905221147 20 0.0 0.0 0.00 0.00 0.00 34 1016.1
20260905220632 20 0.0 0.0 0.00 0.00 0.00 34 1016.0
20260905220132 20 0.0 0.0 0.00 0.00 0.00 35 1016.1
20260905215703 20 0.0 0.0 0.00 0.00 0.00 33 1016.0
20260905215133 20 0.0 0.0 0.00 0.00 0.00 32 1015.9
20260905214632 20 0.0 0.0 0.00 0.00 0.00 30 1015.9
20260905214132 20 0.0 0.0 0.00 0.00 0.00 28 1015.9
20260905213645 20 0.0 0.0 0.00 0.00 0.00 27 1015.9
20260905213306 20 0.0 0.0 0.00 0.00 0.00 27 1015.7
20260905212633 20 0.0 0.0 0.00 0.00 0.00 26 1015.8
20260905212143 20 0.0 0.0 0.00 0.00 0.00 26 1015.9
20260905211702 20 0.0 0.0 0.00 0.00 0.00 27 1015.8
20260905211153 20 0.0 0.0 0.00 0.00 0.00 26 1015.8
20260905210134 20 0.0 0.0 0.00 0.00 0.00 26 1015.8
20260905205633 21 0.0 0.0 0.00 0.00 0.00 25 1015.7
20260905205132 21 0.0 0.0 0.00 0.00 0.00 25 1015.7
20260905204633 21 0.0 0.0 0.00 0.00 0.00 24 1015.7
20260905204132 21 0.0 0.0 0.00 0.00 0.00 24 1015.7
20260905203632 21 0.0 0.0 0.00 0.00 0.00 23 1015.7
20260905203133 21 0.0 0.0 0.00 0.00 0.00 23 1015.7
20260905202633 21 0.0 0.0 0.00 0.00 0.00 23 1015.6
20260905202202 21 0.0 0.0 0.00 0.00 0.00 23 1015.7
20260905201635 21 0.0 0.0 0.00 0.00 0.00 24 1015.5
20260905201134 21 0.0 0.0 0.00 0.00 0.00 23 1015.7
20260905200648 21 0.0 0.0 0.00 0.00 0.00 23 1015.5
20260905200131 21 0.0 0.0 0.00 0.00 0.00 24 1015.6
20260905195632 21 0.0 0.0 0.00 0.00 0.00 24 1015.7
20260905195134 21 0.0 0.0 0.00 0.00 0.00 24 1015.7
20260905194640 21 0.0 0.0 0.00 0.00 0.00 24 1015.6
20260905194132 21 0.0 0.0 0.00 0.00 0.00 24 1015.6
20260905193636 21 0.0 0.0 0.00 0.00 0.00 24 1015.6
20260905193132 21 0.0 0.0 0.00 0.00 0.00 24 1015.6
20260905192634 21 0.0 0.0 0.00 0.00 0.00 24 1015.5
20260905192133 21 0.0 0.0 0.00 0.00 0.00 24 1015.6
20260905191642 21 0.0 0.0 0.00 0.00 0.00 24 1015.6
20260905191134 21 0.0 0.0 0.00 0.00 0.00 24 1015.4
20260905190639 21 0.0 0.0 0.00 0.00 0.00 24 1015.3
20260905190132 21 0.0 0.0 0.00 0.00 0.00 24 1015.2
20260905185633 21 0.0 0.0 0.00 0.00 0.00 24 1015.3
20260905185152 21 0.0 0.0 0.00 0.00 0.00 25 1015.3
20260905184633 21 0.0 0.0 0.00 0.00 0.00 24 1015.2
20260905184133 21 0.0 0.0 0.00 0.00 0.00 25 1015.4
20260905183633 21 0.0 0.0 0.00 0.00 0.00 27 1015.2
20260905183133 21 0.0 0.0 0.00 0.00 0.00 27 1015.3
20260905182633 21 0.0 0.0 0.00 0.00 0.00 28 1015.2
20260905182149 21 0.0 0.0 0.00 0.00 0.00 29 1015.0
20260905181633 21 0.0 0.0 0.00 0.00 0.00 31 1015.2
20260905181133 21 0.0 0.0 0.00 0.00 0.00 28 1015.2
20260905180632 21 0.0 0.0 0.00 0.00 0.00 28 1015.0
20260905180133 21 0.0 0.0 0.00 0.00 0.00 28 1014.8
20260905175642 21 0.0 0.0 0.00 0.00 0.00 28 1014.9
20260905175136 21 0.0 0.0 0.00 0.00 0.00 31 1015.0
20260905174638 21 0.0 0.0 0.00 0.00 0.00 32 1015.1
20260905174133 21 0.0 0.0 0.00 0.00 0.00 31 1014.9
20260905173633 21 0.0 0.0 0.00 0.00 0.00 35 1015.1
20260905173136 21 0.0 0.0 0.00 0.00 0.00 37 1015.1
20260905172633 21 0.0 0.0 0.00 0.00 0.00 40 1015.3
20260905172138 21 0.0 0.0 0.00 0.00 0.00 38 1014.6
20260905172006 21 0.0 0.0 0.00 0.00 0.00 39 1014.5
20260905171655 21 0.0 0.0 0.00 0.00 0.00 37 1014.7
20260905170632 22 0.0 0.0 0.00 0.00 0.00 43 1014.5
20260905170135 22 0.0 0.0 0.00 0.00 0.00 50 1014.8
20260905165633 22 0.0 0.0 0.00 0.00 0.00 49 1014.1
20260905165133 22 0.0 0.0 0.00 0.00 0.00 55 1014.2
20260905164713 22 0.0 0.0 0.00 0.00 0.00 49 1013.9
20260905164703 22 0.0 0.0 0.00 0.00 0.00 58 1014.3
20260905163633 22 0.0 0.0 0.00 0.00 0.00 61 1014.4
20260905163133 23 0.0 0.0 0.00 0.00 0.00 69 1013.8
20260905162632 23 0.0 0.0 0.00 0.00 0.00 63 1013.9
20260905162133 23 0.0 0.0 0.00 0.00 0.00 71 1014.0
20260905161632 23 0.0 0.0 0.00 0.00 0.00 70 1014.1
20260905161132 23 0.0 0.0 0.00 0.00 0.00 67 1013.1
20260905160632 23 0.0 0.0 0.00 0.00 0.00 67 1014.0
20260905160132 24 0.0 0.0 0.00 0.00 0.00 58 1013.5
20260905155704 24 0.0 0.0 0.00 0.00 0.00 59 1013.6
20260905155133 24 0.0 0.0 0.00 0.00 0.00 51 1013.2
20260905154635 25 0.0 0.0 0.00 0.00 0.00 52 1013.3
20260905154145 25 0.0 0.0 0.00 0.00 0.00 54 1013.3
20260905153632 25 0.0 0.0 0.00 0.00 0.00 50 1013.4
20260905153133 26 0.0 0.0 0.00 0.00 0.00 49 1012.5
20260905152631 26 0.0 0.0 0.00 0.00 0.00 51 1013.0
20260905152132 26 0.0 0.0 0.00 0.00 0.00 52 1013.1
20260905151656 26 0.0 0.0 0.00 0.00 0.00 50 1011.6
20260905151132 26 0.0 0.0 0.00 0.00 0.00 49 1012.6
20260905150634 26 0.0 0.0 0.00 0.00 0.00 49 1012.0
20260905150132 26 0.0 0.0 0.00 0.00 0.00 51 1012.3
20260905145653 26 0.0 0.0 0.00 0.00 0.00 52 1012.0
20260905145132 26 0.0 0.0 0.00 0.00 0.00 52 1012.4
20260905144641 27 0.0 0.0 0.00 0.00 0.00 51 1012.2
20260905144145 27 0.0 0.0 0.00 0.00 0.00 49 1011.6
20260905143633 27 0.0 0.0 0.00 0.00 0.00 47 1012.6
20260905143148 27 0.0 0.0 0.00 0.00 0.00 46 1012.0
20260905142650 27 0.0 0.0 0.00 0.00 0.00 46 1012.2
20260905141744 27 0.0 0.0 0.00 0.00 0.00 51 1011.5
20260905141154 27 0.0 0.0 0.00 0.00 0.00 55 1011.7
20260905140634 27 0.0 0.0 0.00 0.00 0.00 52 1012.2
20260905140134 27 0.0 0.0 0.00 0.00 0.00 42 1012.1
20260905135636 27 0.0 0.0 0.00 0.00 0.00 48 1012.4
20260905135133 28 0.0 0.0 0.00 0.00 0.00 52 1011.0
20260905134733 28 0.0 0.0 0.00 0.00 0.00 52 1012.0
20260905134133 28 0.0 0.0 0.00 0.00 0.00 50 1011.2
20260905133700 28 0.0 0.0 0.00 0.00 0.00 57 1011.1
20260905133132 28 0.0 0.0 0.00 0.00 0.00 54 1013.0
20260905132634 28 0.0 0.0 0.00 0.00 0.00 47 1011.3
20260905132131 28 0.0 0.0 0.00 0.00 0.00 45 1010.9
20260905131633 28 0.0 0.0 0.00 0.00 0.00 42 1012.4
20260905131204 28 0.0 0.0 0.00 0.00 0.00 45 1011.4
20260905130200 28 0.0 0.0 0.00 0.00 0.00 41 1011.7
20260905125632 29 0.0 0.0 0.00 0.00 0.00 38 1010.8
20260905125132 28 0.0 0.0 0.00 0.00 0.00 40 1011.0
20260905124633 28 0.0 0.0 0.00 0.00 0.00 39 1012.2
20260905124135 29 0.0 0.0 0.00 0.00 0.00 38 1011.2
20260905123631 28 0.0 0.0 0.00 0.00 0.00 39 1012.2
20260905123133 29 0.0 0.0 0.00 0.00 0.00 40 1011.7
20260905122631 29 0.0 0.0 0.00 0.00 0.00 37 1012.6
20260905122133 30 0.0 0.0 0.00 0.00 0.00 36 1010.9
20260905121633 30 0.0 0.0 0.00 0.00 0.00 34 1011.2
20260905121209 30 0.0 0.0 0.00 0.00 0.00 34 1011.4
20260905120636 30 0.0 0.0 0.00 0.00 0.00 34 1013.0
20260905120133 30 0.0 0.0 0.00 0.00 0.00 32 1011.2
20260905115902 31 0.0 0.0 0.00 0.00 0.00 30 1010.7
20260905115256 31 0.0 0.0 0.00 0.00 0.00 31 1010.0
20260905113632 31 0.0 0.0 0.00 0.00 0.00 30 1010.3
20260905113131 31 0.0 0.0 0.00 0.00 0.00 30 1011.7
20260905111134 31 0.0 0.0 0.00 0.00 0.00 31 1009.6
20260905110639 30 0.0 0.0 0.00 0.00 0.00 32 1011.1
20260905110133 30 0.0 0.0 0.00 0.00 0.00 30 1012.4
20260905105632 31 0.0 0.0 0.00 0.00 0.00 30 1009.2
20260905105131 30 0.0 0.0 0.00 0.00 0.00 31 1012.1
20260905104631 31 0.0 0.0 0.00 0.00 0.00 31 1010.2
20260905102149 30 0.0 0.0 0.00 0.00 0.00 32 1012.6
20260905101635 31 0.0 0.0 0.00 0.00 0.00 34 1010.8
20260905101132 31 0.0 0.0 0.00 0.00 0.00 34 1011.7
20260905100632 31 0.0 0.0 0.00 0.00 0.00 34 1010.5
20260905100141 31 0.0 0.0 0.00 0.00 0.00 33 1010.2
20260905095637 31 0.0 0.0 0.00 0.00 0.00 34 1010.7
20260905095132 30 0.0 0.0 0.00 0.00 0.00 33 1011.2
20260905094635 30 0.0 0.0 0.00 0.00 0.00 30 1010.1
20260905094154 30 0.0 0.0 0.00 0.00 0.00 31 1011.6
20260905093143 30 0.0 0.0 0.00 0.00 0.00 30 1011.5
20260905092703 30 0.0 0.0 0.00 0.00 0.00 30 1011.1
20260905092137 30 0.0 0.0 0.00 0.00 0.00 30 1011.6
20260905091632 30 0.0 0.0 0.00 0.00 0.00 30 1010.9
20260905091136 30 0.0 0.0 0.00 0.00 0.00 29 1011.0
20260905090640 30 0.0 0.0 0.00 0.00 0.00 28 1010.1
20260905090138 30 0.0 0.0 0.00 0.00 0.00 30 1012.4
20260905085729 30 0.0 0.0 0.00 0.00 0.00 29 1011.4
20260905085641 30 0.0 0.0 0.00 0.00 0.00 28 1010.9
20260905085134 30 0.0 0.0 0.00 0.00 0.00 28 1010.6
20260905083221 30 0.0 0.0 0.00 0.00 0.00 30 1010.4
20260905081702 29 0.0 0.0 0.00 0.00 0.00 31 1010.8
20260905081131 28 0.0 0.0 0.00 0.00 0.00 32 1010.6
20260905075224 27 0.0 0.0 0.00 0.00 0.00 36 1010.3
20260905074144 26 0.0 0.0 0.00 0.00 0.00 39 1011.7
20260905073632 25 0.0 0.0 0.00 0.00 0.00 40 1011.5
20260905073151 24 0.0 0.0 0.00 0.00 0.00 43 1012.9
20260905070211 22 0.0 0.0 0.00 0.00 0.00 42 1015.4
20260905065651 22 0.0 0.0 0.00 0.00 0.00 42 1013.6